Location: Beaumont
(45.9972°N, 3.3850°E)
Time: 22:33:58
(UTC+00:00)

Daily predictions for brighter satellites

Satellite Brightness Start Highest point End
(mag) Time Altitude Azimuth Time Altitude Azimuth Time Altitude Azimuth
BREEZE-M (TANK) 4.4 17:34:43 10° WNW 17:39:03 77° NNE 17:58:36 10° ESE
Cosmos 1844 Rocket 3.3 17:57:29 10° S 18:02:28 35° ESE 18:07:29 10° NE
Cosmos 372 Rocket 4.1 17:59:09 10° S 18:04:18 61° ESE 18:09:27 10° NNE
Cosmos 1707 3.0 18:01:36 10° N 18:05:19 45° ENE 18:08:59 10° SSE
NOSS 3-2 (C) 4.3 17:59:10 10° NNW 18:06:21 52° NE 18:14:27 10° ESE
CZ-2C R/B 3.5 18:04:40 10° SW 18:06:25 13° SSW 18:08:08 10° SSE
Cosmos 1844 4.4 18:04:56 10° SSE 18:09:55 32° ESE 18:14:53 10° NE
ISS -3.1 18:07:11 10° W 18:10:30 53° NNW 18:13:49 10° ENE
USA 186 3.9 18:11:40 10° E 18:13:05 12° ENE 18:14:30 10° NE
Meteor 1-12 Rocket 4.5 18:08:11 10° SSE 18:13:50 51° E 18:19:24 10° NNE
Cosmos 1300 Rocket 3.8 18:14:56 10° SSE 18:19:11 49° E 18:23:28 10° NNE
Okean 1 Rocket 4.4 18:19:25 10° SE 18:22:36 19° E 18:25:49 10° NE
Sich 1 Rocket 3.6 18:18:58 10° S 18:23:29 86° E 18:28:05 10° N
NOSS 2-2 (E) 4.5 18:21:01 10° WSW 18:24:24 41° NW 18:28:16 10° NNE
CENTAUR R/B 3.3 18:17:35 10° NW 18:25:29 61° NE 18:34:10 10° SE
Cosmos 2298 Rocket 4.0 18:20:20 10° S 18:25:35 63° ESE 18:30:52 10° NNE
Cosmos 1833 Rocket 4.3 18:22:51 10° N 18:26:41 18° NE 18:30:12 11° E
Iridium 4 Rocket 4.4 18:22:48 10° SSW 18:27:53 58° W 18:33:28 10° N
CSL-04 Debris 4.1 18:24:39 10° SSE 18:30:00 72° ENE 18:35:24 10° N
Helios 1A Rocket 4.4 18:27:58 10° S 18:31:52 42° W 18:35:50 10° NNW
CSL-04 Rocket 3.7 18:26:33 10° SSE 18:31:58 71° ENE 18:37:29 10° N
ATLAS 2AS CENTAUR R/B 3.6 18:26:44 10° S 18:33:36 34° ESE 18:40:30 10° NE
Okean 2 Rocket 3.0 18:29:14 10° S 18:33:42 71° E 18:38:10 10° NNE
NOSS 2-2 (D) 4.4 18:30:53 10° WSW 18:34:15 41° NW 18:38:03 10° NNE
YAOGAN 1 2.8 18:30:16 10° S 18:34:35 76° WSW 18:38:56 10° NNW
Cosmos 1025 Rocket 3.0 18:30:22 10° N 18:34:46 69° E 18:39:09 10° SSE
ATLAS 3B R/B 3.7 18:31:29 10° NNW 18:37:29 32° NNE 18:42:35 14° E
SWAS 4.5 18:36:13 10° NNW 18:40:30 63° ENE 18:44:38 10° SE
Abrixas rocket 1.8 18:37:41 10° WNW 18:40:32 76° NNE 18:42:11 22° E
Cosmos 1513 Rocket 4.4 18:34:59 10° S 18:41:13 83° E 18:47:24 10° N
CREW DRAGON DEMO-1 DEB 2.9 18:39:32 10° WNW 18:42:32 62° NNE 18:44:16 22° E
Cosmos 1536 Rocket 3.6 18:40:06 10° N 18:44:33 65° ENE 18:49:00 10° SSE
Cosmos 1125 Rocket 3.5 18:41:01 10° S 18:46:13 59° ESE 18:51:27 10° NNE
SJ-6B 3.7 18:48:31 21° ESE 18:49:57 27° ENE 18:53:11 10° N
CZ-4 R/B 2.9 18:48:17 10° SSW 18:52:15 40° W 18:56:11 10° NNW
Cosmos 2150 Rocket 4.2 18:47:45 10° SSW 18:53:09 84° WNW 18:58:39 10° NNE
SJ-11-01 4.3 18:48:30 10° SSE 18:53:14 84° WSW 18:57:57 10° NNW
CZ-2C R/B 3.5 18:48:57 10° S 18:54:17 71° WSW 18:59:57 10° NNW
Cosmos 1464 Rocket 4.1 18:48:27 10° S 18:54:35 82° W 19:00:49 10° N
USA 238 DEB 4.0 18:47:37 10° NW 18:54:51 77° SW 19:02:21 10° SSE
USA 238 4.0 18:47:44 10° NW 18:54:58 77° SW 19:02:28 10° SSE
Okean-O 4.4 18:52:06 10° SSW 18:56:08 34° W 19:00:11 10° NNW
Cosmos 2285 Rocket 4.0 18:50:45 10° S 18:56:55 60° ESE 19:03:10 10° NNE
Cosmos 1674 2.7 18:53:07 10° N 18:56:56 57° E 19:00:17 13° SSE
Cosmos 1092 Rocket 4.2 18:51:55 10° N 18:57:55 50° ENE 19:03:56 10° SSE
MOS 1 Rocket 3.0 18:59:08 10° NNE 19:03:32 85° ESE 19:07:48 10° SSW
FREGAT/IRIS 4.0 19:04:41 20° NE 19:04:41 20° NE 19:05:57 10° NNE
TSX-5 4.2 19:04:30 10° S 19:08:06 45° ESE 19:12:40 10° NE
ARGOS 3.2 19:04:29 10° SSE 19:09:52 86° WSW 19:15:17 10° NNW
CZ-2C R/B 2.8 19:08:21 10° NNE 19:13:49 52° E 19:19:16 10° S
Cosmos 1340 Rocket 4.0 19:15:11 25° ENE 19:15:11 25° ENE 19:17:29 10° NNE
Cosmos 1733 3.3 19:13:48 26° SSE 19:15:36 48° E 19:19:19 10° NNE
Cosmos 2151 Rocket 4.2 19:12:00 10° SSW 19:16:24 58° WNW 19:20:52 10° N
MOS 1 4.3 19:13:05 18° SE 19:17:18 62° ENE 19:22:56 10° N
Lacrosse 5 rocket 3.4 19:15:08 10° NW 19:18:32 21° N 19:20:43 15° NE
Cosmos 2082 Rocket 3.4 19:15:27 10° N 19:20:00 24° NE 19:21:17 23° ENE
Shenzhou-11 Module 4.3 19:20:30 10° SW 19:20:33 10° SW 19:20:33 10° SW
BREEZE-M DEB (TANK) 3.6 19:19:22 10° WNW 19:22:36 51° SSW 19:27:36 22° SE
BREEZE-M R/B 3.9 19:12:01 10° WSW 19:23:00 87° NNW 19:24:25 36° ENE
DMSP B5D2-2 4.2 19:18:27 10° NNE 19:23:39 53° E 19:28:48 10° S
Cosmos 494 Rocket 4.3 19:19:57 10° NNW 19:25:11 67° WSW 19:29:53 13° S
Meteor 1-15 Rocket 4.3 19:21:25 10° SSW 19:27:04 79° W 19:32:52 10° N
Cosmos 1805 3.2 19:23:35 10° S 19:27:30 85° W 19:31:27 10° N
OBJECT-B 2.2 19:28:48 27° NNE 19:28:48 27° NNE 19:30:41 10° N
Milstar 3 Cent rocket 4.2 19:28:03 10° SW 19:31:23 14° S 19:32:39 13° S
Ariane Rocket 2.9 19:28:06 20° SSE 19:31:44 90° NW 19:36:51 10° NNW
SL-08 RB Rocket 3.9 19:27:52 14° S 19:31:49 71° WSW 19:36:22 10° NNW
H-2A R/B 3.3 19:28:38 10° SSW 19:33:19 40° W 19:38:09 10° NNW
USA 234 4.4 19:38:13 23° SSE 19:38:13 23° SSE 19:41:26 10° S
Cosmos 1269 Rocket 3.9 19:31:49 10° NNW 19:37:11 88° ENE 19:39:33 34° SSE
Cosmos 1626 2.0 19:38:31 10° N 19:42:02 77° NNE 19:42:02 77° NNE
Okean 1-7 Rocket 4.4 19:38:13 10° N 19:41:51 37° NE 19:41:51 37° NE
MetOp-A 4.1 19:40:20 28° SSE 19:43:15 90° WSW 19:48:40 10° NNW
USA 186 2.9 19:42:34 35° SW 19:43:23 43° W 19:46:33 10° NNW
Cosmos 1844 Rocket 4.0 19:41:04 10° SW 19:46:16 40° NW 19:51:33 10° NNE
COSMOS 2406 3.1 19:40:42 10° NNW 19:46:23 74° ENE 19:47:55 49° SE
ISS -2.2 19:44:44 10° WNW 19:47:47 30° N 19:47:47 30° N
Cosmos 2278 Rocket 2.6 19:44:45 10° S 19:51:32 42° ENE 19:55:40 10° NE
Lacrosse 4 Rocket 2.6 19:50:05 10° NNW 19:52:52 29° NNE 19:52:52 29° NNE
Meteor 1-22 Rocket 4.3 19:49:00 10° S 19:54:55 89° E 20:01:03 10° N
Meteor 2-5 Rocket 4.1 19:51:03 10° NNW 19:56:40 63° W 20:00:46 19° S
Exosat Rocket 4.5 19:53:07 10° SW 19:58:16 48° WNW 20:03:09 10° NNE
Cosmos 909 Rocket 4.4 19:52:36 10° NNW 19:58:54 46° NE 19:59:55 42° ENE
Meteor 1-24 Rocket 3.8 19:53:26 10° NNW 19:59:02 77° W 20:01:37 34° S
Okean 1 Rocket 4.2 19:55:53 10° SSW 20:00:10 44° WNW 20:04:29 10° N
NOSS 3-4 (A) 3.5 19:55:30 10° SW 20:01:24 76° NW 20:07:46 10° NE
NOSS 3-4 (C) 3.5 19:55:36 10° SW 20:01:30 77° NW 20:07:52 10° NE
SL-14 R/B 3.6 19:58:15 10° NNW 20:01:55 64° WNW 20:01:55 64° WNW
Resurs 01 Rocket 2.2 20:03:26 47° NNE 20:03:26 47° NNE 20:06:52 10° N
Meteor 2-19 Rocket 4.4 19:57:09 10° N 20:03:13 62° ENE 20:03:47 59° ESE
Cosmos 1833 Rocket 2.5 20:05:47 10° NNW 20:11:30 85° ENE 20:11:54 77° SE
Cosmos 2251 Rocket 3.9 20:09:07 10° NNW 20:13:44 52° NE 20:13:44 52° NE
CENTAUR R/B 4.1 20:08:34 10° NW 20:16:13 44° WSW 20:22:00 20° S
ARIANE 5 R/B 4.2 20:20:05 27° N 20:20:05 27° N 20:22:13 10° N
SPOT 3 Rocket 3.6 20:20:50 70° SW 20:21:06 72° WSW 20:26:17 10° NNW
ATLAS 2AS CENTAUR R/B 3.3 20:16:15 10° SW 20:24:12 69° NW 20:32:04 10° NE
Resurs 1-3 4.4 20:26:18 49° WNW 20:26:18 49° WNW 20:30:11 10° NNW
ATLAS 3B R/B 2.6 20:21:59 10° NW 20:28:53 82° SW 20:29:50 68° SSE
Cosmos 1655 Rocket 3.9 20:31:40 10° N 20:37:50 86° N 20:37:50 86° N
Lacrosse 5 rocket 3.6 20:54:15 10° NW 20:56:20 25° NNW 20:56:20 25° NNW
Cosmos 2098 Rocket 4.3 20:55:49 10° NNW 21:01:45 58° WNW 21:01:45 58° WNW
Cosmos 2082 Rocket 3.0 20:59:00 10° NNW 21:03:08 47° NW 21:03:08 47° NW
Terra 4.2 21:21:45 17° N 21:21:45 17° N 21:22:52 10° N
Cosmos 2278 Rocket 3.9 21:33:01 26° WNW 21:34:33 30° NW 21:39:29 10° N
